BREEZE-M DEB

Satellite information

Favourite Embed

Satellite Type and Status

DEBRISIN ORBIT

Key statistics

Satellite BREEZE-M DEB at a glance.

Uptime

6384

Days in orbit

Revolutions

≈ 3.8

Per day

Orbit

MEO

Medium Earth Orbit

Inclination

48.9

Latest

Satellite identification and parameters

Extended collection of information and parameters for BREEZE-M DEB.

Object identification

Identified? True

Debris? True

Object name: BREEZE-M DEB

International designator: 2008-011AU

Object number (NORAD): 38597

Object ID (CCSDS): 38597

Country: COMMONWEALTH OF INDEPENDENT STATES (CIS)

Current information (Y/N): Y

RCS size: MEDIUM

Orbital parameters

Period: 380.279 minutes

Inclination: 48.9296 deg

SMA: 17387.142 km

Apoapsis: 21479.403 km

Periapsis: 538.611 km

RAAN: 101.7814 deg

Eccentricy: 0.60219189

Argument of periapsis: 72.5429 deg

Mean anomaly: 342.1877 deg

Mean motion: 3.78669606 rev/day

Mean motion (dot): 0.00012236 rev/day2

B* drag term: 0.047500483 1/REarth

Two-line elements (TLE)

Creation date: Sept. 4, 2025, 4:29 a.m.

Reference frame: TEME

Reference center: EARTH

Epoch: Sept. 3, 2025, 7:14 p.m. UTC

TLE line 0: 0 BREEZE-M DEB

TLE line 1: 1 38597U 08011AU 25246.80168502 .00012236 00000-0 47500-1 0 9992

TLE line 2: 2 38597 48.9296 101.7814 6021919 72.5429 342.1877 3.78669606 21085

Live tracking on map

Real-time ground track for satellite BREEZE-M DEB.

In-orbit conjunctions

A list of the most updated potential collisions computed for object BREEZE-M DEB.

Target Orbit TCA Probability of collision Miss distance Type
COSMOS 1555 (GLONASS) MEO 2025-08-10 07:54:23 TBA 2117.0 (m) PAYLOAD

Associated space launch

American communications satellite scheduled to operate in GEO, but was left stranded in a too low transfer orbit due to a launch vehicle failure. It was sold to the US Department of Defense and operated from geosynchronous orbit.

BREEZE-M DEB was lifted into orbit during the mission ‘Proton-M Briz-M | AMC 14’, on board a Proton-M Briz-M space rocket.

The launch took place on March 14, 2008, 11:18 p.m. from 200/39 (200L).

For more information about the launch, click the button.

Launch to space Proton-M Briz-M | AMC 14
Proton-M Briz-M | AMC 14

Agency: N/A

Status: Launch Failure

Launch date: March 14, 2008, 11:18 p.m. UTC

Rocket: Proton-M Briz-M

Launch pad: 200/39 (200L)

Location: Baikonur Cosmodrome, Republic of Kazakhstan

...

Latest news about this satellite

There are no fresh news available about this satellite. Check back as we update our databases every day.


Newsletter sign-up

Weekly statistics, charts and insights to help you stay on top of the space industry.